Time,TemperatureF,DewpointF,PressureIn,WindDirection,WindDirectionDegrees,WindSpeedMPH,WindSpeedGustMPH,Humidity,HourlyPrecipIn,Conditions,Clouds,dailyrainin,SoftwareType,DateUTC
2013-03-10 00:04:00,40.2,38.3,29.67,NE,41,7.8,14.4,93,0.00,,,-99.99,Meteorologica,2013-03-10 06:04:00,
2013-03-10 00:09:00,40.0,38.1,29.67,North,7,8.9,13.9,93,0.00,,,-99.99,Meteorologica,2013-03-10 06:09:00,
2013-03-10 00:14:00,39.9,38.1,29.66,WSW,240,6.7,11.3,93,0.00,,,-99.99,Meteorologica,2013-03-10 06:14:00,
2013-03-10 00:19:00,39.5,37.5,29.65,NNE,16,9.8,21.0,92,0.00,,,-99.99,Meteorologica,2013-03-10 06:19:00,
2013-03-10 00:24:00,39.2,37.2,29.65,SE,140,9.8,18.0,92,0.00,,,-99.99,Meteorologica,2013-03-10 06:24:00,
2013-03-10 00:29:00,38.9,36.9,29.67,SW,222,7.6,15.6,92,0.00,,,-99.99,Meteorologica,2013-03-10 06:29:00,
2013-03-10 00:34:00,38.9,36.9,29.67,NNW,328,8.3,16.0,92,0.00,,,-99.99,Meteorologica,2013-03-10 06:34:00,
2013-03-10 00:39:00,38.9,37.0,29.67,WSW,243,7.3,12.0,93,0.00,,,-99.99,Meteorologica,2013-03-10 06:39:00,
2013-03-10 00:44:00,38.7,36.8,29.67,NNE,20,7.3,19.2,93,0.00,,,-99.99,Meteorologica,2013-03-10 06:44:00,
2013-03-10 00:49:00,38.6,36.7,29.67,NNE,20,7.0,13.8,93,0.00,,,-99.99,Meteorologica,2013-03-10 06:49:00,
2013-03-10 00:54:00,38.5,36.6,29.68,ESE,121,7.1,13.0,92,0.00,,,-99.99,Meteorologica,2013-03-10 06:54:00,
2013-03-10 00:59:00,38.4,36.4,29.67,SW,233,7.7,12.5,92,0.00,,,-99.99,Meteorologica,2013-03-10 06:59:00,
2013-03-10 01:04:00,38.1,36.1,29.67,North,1,9.7,19.0,92,0.00,,,-99.99,Meteorologica,2013-03-10 07:04:00,
2013-03-10 01:09:00,38.2,36.3,29.66,North,354,7.7,13.4,92,0.00,,,-99.99,Meteorologica,2013-03-10 07:09:00,
2013-03-10 01:14:00,37.9,35.9,29.64,North,8,11.2,17.6,92,0.00,,,-99.99,Meteorologica,2013-03-10 07:14:00,
2013-03-10 01:19:00,37.8,35.9,29.65,North,351,8.8,15.8,92,0.00,,,-99.99,Meteorologica,2013-03-10 07:19:00,
2013-03-10 01:24:00,37.7,36.0,29.64,WSW,249,7.8,12.5,93,0.00,,,-99.99,Meteorologica,2013-03-10 07:24:00,
2013-03-10 01:29:00,37.7,35.8,29.66,SE,137,9.7,18.0,92,0.00,,,-99.99,Meteorologica,2013-03-10 07:29:00,
2013-03-10 01:34:00,37.7,35.8,29.67,SW,233,7.7,12.7,93,0.00,,,-99.99,Meteorologica,2013-03-10 07:34:00,
2013-03-10 01:39:00,37.8,35.9,29.68,WSW,241,6.6,15.9,93,0.00,,,-99.99,Meteorologica,2013-03-10 07:39:00,
2013-03-10 01:44:00,37.9,36.0,29.68,North,8,5.5,12.8,93,0.00,,,-99.99,Meteorologica,2013-03-10 07:44:00,
2013-03-10 01:49:00,37.6,35.8,29.68,North,358,9.6,13.9,93,0.00,,,-99.99,Meteorologica,2013-03-10 07:49:00,
2013-03-10 01:54:00,37.5,35.7,29.67,NNE,29,7.8,14.9,93,0.00,,,-99.99,Meteorologica,2013-03-10 07:54:00,
2013-03-10 01:59:00,37.4,35.7,29.67,SW,229,7.2,13.6,93,0.00,,,-99.99,Meteorologica,2013-03-10 07:59:00,
2013-03-10 03:04:00,37.1,35.4,29.66,North,359,10.0,16.8,93,0.00,,,-99.99,Meteorologica,2013-03-10 08:04:00,
2013-03-10 03:09:00,36.9,35.2,29.67,NW,315,8.8,20.8,93,0.00,,,-99.99,Meteorologica,2013-03-10 08:09:00,
2013-03-10 03:14:00,37.0,35.3,29.69,NNW,345,9.2,13.9,93,0.00,,,-99.99,Meteorologica,2013-03-10 08:14:00,
2013-03-10 03:19:00,36.8,35.1,29.71,NNW,340,8.5,15.1,93,0.00,,,-99.99,Meteorologica,2013-03-10 08:19:00,
2013-03-10 03:24:00,36.8,35.0,29.72,North,359,8.6,13.8,93,0.00,,,-99.99,Meteorologica,2013-03-10 08:24:00,
2013-03-10 03:29:00,36.6,34.9,29.71,SW,236,10.7,14.3,93,0.00,,,-99.99,Meteorologica,2013-03-10 08:29:00,
2013-03-10 03:34:00,36.6,34.9,29.70,North,11,8.8,15.3,93,0.00,,,-99.99,Meteorologica,2013-03-10 08:34:00,
2013-03-10 03:39:00,36.5,34.8,29.70,North,6,7.6,17.0,93,0.00,,,-99.99,Meteorologica,2013-03-10 08:39:00,
2013-03-10 03:44:00,36.3,34.5,29.70,North,6,9.9,17.1,93,0.00,,,-99.99,Meteorologica,2013-03-10 08:44:00,
2013-03-10 03:49:00,36.4,34.5,29.69,SW,233,10.3,16.9,93,0.00,,,-99.99,Meteorologica,2013-03-10 08:49:00,
2013-03-10 03:54:00,36.2,34.5,29.69,SE,127,9.4,16.1,93,0.00,,,-99.99,Meteorologica,2013-03-10 08:54:00,
2013-03-10 03:59:00,36.2,34.5,29.69,NNE,22,8.1,13.3,93,0.00,,,-99.99,Meteorologica,2013-03-10 08:59:00,
2013-03-10 04:04:00,36.2,34.5,29.69,NW,325,7.5,17.7,93,0.00,,,-99.99,Meteorologica,2013-03-10 09:04:00,
2013-03-10 04:09:00,36.3,34.6,29.70,ESE,121,7.2,16.4,93,0.00,,,-99.99,Meteorologica,2013-03-10 09:09:00,
2013-03-10 04:14:00,36.1,34.4,29.70,SE,132,8.0,14.4,93,0.00,,,-99.99,Meteorologica,2013-03-10 09:14:00,
2013-03-10 04:19:00,36.1,34.3,29.70,NNE,26,7.7,14.9,93,0.00,,,-99.99,Meteorologica,2013-03-10 09:19:00,
2013-03-10 04:24:00,36.0,34.2,29.70,NNE,33,9.5,15.8,93,0.00,,,-99.99,Meteorologica,2013-03-10 09:24:00,
2013-03-10 04:29:00,35.9,34.1,29.70,North,3,9.9,20.1,93,0.00,,,-99.99,Meteorologica,2013-03-10 09:29:00,
2013-03-10 04:34:00,36.0,34.3,29.69,ENE,62,10.5,15.8,93,0.00,,,-99.99,Meteorologica,2013-03-10 09:34:00,
2013-03-10 04:39:00,35.9,34.2,29.67,NNE,33,10.2,16.2,93,0.00,,,-99.99,Meteorologica,2013-03-10 09:39:00,
2013-03-10 04:44:00,35.7,34.0,29.68,North,7,9.4,16.2,93,0.00,,,-99.99,Meteorologica,2013-03-10 09:44:00,
2013-03-10 04:49:00,35.8,34.1,29.69,ESE,118,7.7,14.8,93,0.00,,,-99.99,Meteorologica,2013-03-10 09:49:00,
2013-03-10 04:54:00,35.7,34.0,29.70,North,6,10.7,20.6,93,0.00,,,-99.99,Meteorologica,2013-03-10 09:54:00,
2013-03-10 04:59:00,35.8,34.0,29.72,NNW,341,8.0,13.2,93,0.00,,,-99.99,Meteorologica,2013-03-10 09:59:00,
2013-03-10 05:04:00,35.8,34.1,29.73,NNW,343,6.7,13.1,93,0.00,,,-99.99,Meteorologica,2013-03-10 10:04:00,
2013-03-10 05:09:00,35.6,33.7,29.72,SE,126,10.1,19.2,93,0.00,,,-99.99,Meteorologica,2013-03-10 10:09:00,
2013-03-10 05:14:00,35.6,33.8,29.72,NNW,340,8.9,14.3,93,0.00,,,-99.99,Meteorologica,2013-03-10 10:14:00,
2013-03-10 05:19:00,35.4,33.5,29.72,North,10,10.7,16.1,93,0.00,,,-99.99,Meteorologica,2013-03-10 10:19:00,
2013-03-10 05:24:00,35.4,33.5,29.73,North,11,7.8,14.8,93,0.00,,,-99.99,Meteorologica,2013-03-10 10:24:00,
2013-03-10 05:29:00,35.3,33.4,29.74,NNE,20,9.8,16.0,93,0.00,,,-99.99,Meteorologica,2013-03-10 10:29:00,
2013-03-10 05:34:00,35.3,33.5,29.76,North,5,8.0,13.1,93,0.00,,,-99.99,Meteorologica,2013-03-10 10:34:00,
2013-03-10 05:39:00,35.3,33.5,29.76,NNW,347,7.7,15.0,93,0.00,,,-99.99,Meteorologica,2013-03-10 10:39:00,
2013-03-10 05:44:00,35.3,33.5,29.77,North,355,7.7,12.3,93,0.00,,,-99.99,Meteorologica,2013-03-10 10:44:00,
2013-03-10 05:49:00,35.2,33.5,29.76,WSW,244,6.7,10.9,93,0.00,,,-99.99,Meteorologica,2013-03-10 10:49:00,
2013-03-10 05:54:00,35.1,33.4,29.75,NNW,341,9.0,12.2,93,0.00,,,-99.99,Meteorologica,2013-03-10 10:54:00,
2013-03-10 05:59:00,35.0,33.3,29.75,SE,133,9.8,15.1,93,0.00,,,-99.99,Meteorologica,2013-03-10 10:59:00,
2013-03-10 06:04:00,34.9,33.2,29.74,NE,41,10.5,17.7,93,0.00,,,-99.99,Meteorologica,2013-03-10 11:04:00,
2013-03-10 06:09:00,34.9,33.2,29.73,NNW,347,10.2,21.6,93,0.00,,,-99.99,Meteorologica,2013-03-10 11:09:00,
2013-03-10 06:14:00,34.8,33.1,29.73,ESE,119,9.2,17.0,93,0.00,,,-99.99,Meteorologica,2013-03-10 11:14:00,
2013-03-10 06:19:00,34.7,32.9,29.73,WSW,249,10.9,20.1,93,0.00,,,-99.99,Meteorologica,2013-03-10 11:19:00,
2013-03-10 06:24:00,34.7,32.9,29.74,NNE,14,11.8,17.2,93,0.00,,,-99.99,Meteorologica,2013-03-10 11:24:00,
2013-03-10 06:29:00,34.8,33.0,29.75,WSW,240,9.4,15.2,93,0.00,,,-99.99,Meteorologica,2013-03-10 11:29:00,
2013-03-10 06:34:00,34.6,32.7,29.75,SE,126,12.9,19.3,92,0.00,,,-99.99,Meteorologica,2013-03-10 11:34:00,
2013-03-10 06:39:00,34.8,32.9,29.75,NNE,33,9.0,18.8,92,0.00,,,-99.99,Meteorologica,2013-03-10 11:39:00,
2013-03-10 06:44:00,34.6,32.6,29.75,NNE,23,11.2,17.8,92,0.00,,,-99.99,Meteorologica,2013-03-10 11:44:00,
2013-03-10 06:49:00,34.8,32.8,29.75,NNW,343,7.8,16.5,92,0.00,,,-99.99,Meteorologica,2013-03-10 11:49:00,
2013-03-10 06:54:00,34.8,32.7,29.75,North,11,9.9,19.0,92,0.00,,,-99.99,Meteorologica,2013-03-10 11:54:00,
2013-03-10 06:59:00,34.8,32.8,29.74,WSW,240,8.9,20.1,92,0.00,,,-99.99,Meteorologica,2013-03-10 11:59:00,
2013-03-10 07:04:00,34.7,32.5,29.75,WSW,251,10.2,24.9,91,0.00,,,-99.99,Meteorologica,2013-03-10 12:04:00,
2013-03-10 07:09:00,35.0,32.9,29.76,NNW,327,8.1,14.1,92,0.00,,,-99.99,Meteorologica,2013-03-10 12:09:00,
2013-03-10 07:14:00,34.9,32.8,29.75,WSW,243,8.2,18.7,92,0.00,,,-99.99,Meteorologica,2013-03-10 12:14:00,
2013-03-10 07:19:00,34.8,32.7,29.76,WSW,243,12.6,21.0,92,0.00,,,-99.99,Meteorologica,2013-03-10 12:19:00,
2013-03-10 07:24:00,34.7,32.6,29.77,SW,228,8.1,17.1,92,0.00,,,-99.99,Meteorologica,2013-03-10 12:24:00,
2013-03-10 07:29:00,34.8,32.8,29.78,ESE,123,7.3,14.7,92,0.00,,,-99.99,Meteorologica,2013-03-10 12:29:00,
2013-03-10 07:34:00,34.7,32.6,29.78,WSW,242,8.5,15.7,92,0.00,,,-99.99,Meteorologica,2013-03-10 12:34:00,
2013-03-10 07:39:00,34.6,32.5,29.77,NNE,15,7.9,14.2,92,0.00,,,-99.99,Meteorologica,2013-03-10 12:39:00,
2013-03-10 07:44:00,34.5,32.3,29.78,North,11,9.5,22.0,91,0.00,,,-99.99,Meteorologica,2013-03-10 12:44:00,
2013-03-10 07:49:00,34.2,31.9,29.77,SE,139,12.0,20.9,91,0.00,,,-99.99,Meteorologica,2013-03-10 12:49:00,
2013-03-10 07:54:00,34.4,32.3,29.77,NNE,14,8.6,14.2,92,0.00,,,-99.99,Meteorologica,2013-03-10 12:54:00,
2013-03-10 07:59:00,34.4,32.4,29.78,ESE,112,9.5,18.8,92,0.00,,,-99.99,Meteorologica,2013-03-10 12:59:00,
2013-03-10 08:04:00,34.3,32.4,29.78,NNE,18,9.9,16.9,92,0.00,,,-99.99,Meteorologica,2013-03-10 13:04:00,
2013-03-10 08:09:00,34.0,32.0,29.78,North,354,9.3,20.8,92,0.00,,,-99.99,Meteorologica,2013-03-10 13:09:00,
2013-03-10 08:14:00,34.0,32.0,29.79,NNE,13,12.0,17.1,92,0.00,,,-99.99,Meteorologica,2013-03-10 13:14:00,
2013-03-10 08:19:00,33.9,31.9,29.80,SE,130,10.6,18.2,92,0.00,,,-99.99,Meteorologica,2013-03-10 13:19:00,
2013-03-10 08:24:00,34.1,32.1,29.81,SE,129,8.8,17.1,92,0.00,,,-99.99,Meteorologica,2013-03-10 13:24:00,
2013-03-10 08:29:00,34.0,31.9,29.80,North,3,9.6,17.4,92,0.00,,,-99.99,Meteorologica,2013-03-10 13:29:00,
2013-03-10 08:34:00,34.0,32.0,29.80,North,349,9.1,12.3,92,0.00,,,-99.99,Meteorologica,2013-03-10 13:34:00,
2013-03-10 08:39:00,33.8,31.9,29.78,NW,322,12.1,19.2,92,0.00,,,-99.99,Meteorologica,2013-03-10 13:39:00,
2013-03-10 08:44:00,33.7,31.7,29.79,WSW,248,9.4,18.4,92,0.00,,,-99.99,Meteorologica,2013-03-10 13:44:00,
2013-03-10 08:49:00,33.6,31.7,29.80,NNE,22,7.5,18.5,92,0.00,,,-99.99,Meteorologica,2013-03-10 13:49:00,
2013-03-10 08:54:00,33.4,31.4,29.79,SE,132,11.7,18.7,92,0.00,,,-99.99,Meteorologica,2013-03-10 13:54:00,
2013-03-10 08:59:00,33.3,31.2,29.79,NE,55,11.6,21.1,92,0.00,,,-99.99,Meteorologica,2013-03-10 13:59:00,
2013-03-10 09:04:00,33.3,31.3,29.80,NNE,22,12.6,21.9,92,0.00,,,-99.99,Meteorologica,2013-03-10 14:04:00,
2013-03-10 09:09:00,33.3,31.3,29.80,ESE,117,11.2,16.9,92,0.00,,,-99.99,Meteorologica,2013-03-10 14:09:00,
2013-03-10 09:14:00,33.3,31.4,29.80,NNE,22,11.4,19.0,92,0.00,,,-99.99,Meteorologica,2013-03-10 14:14:00,
2013-03-10 09:19:00,33.3,31.5,29.80,SE,146,8.5,18.2,93,0.00,,,-99.99,Meteorologica,2013-03-10 14:19:00,
2013-03-10 09:24:00,33.3,31.6,29.80,NNE,27,10.1,15.1,93,0.00,,,-99.99,Meteorologica,2013-03-10 14:24:00,
2013-03-10 09:29:00,33.1,31.3,29.81,NNE,33,11.5,20.3,93,0.00,,,-99.99,Meteorologica,2013-03-10 14:29:00,
2013-03-10 09:34:00,33.0,31.0,29.82,ESE,117,12.4,20.0,92,0.00,,,-99.99,Meteorologica,2013-03-10 14:34:00,
2013-03-10 09:39:00,33.0,31.1,29.82,WSW,250,10.6,16.6,92,0.00,,,-99.99,Meteorologica,2013-03-10 14:39:00,
2013-03-10 09:44:00,32.6,30.8,29.83,SE,135,9.3,16.6,93,0.00,,,-99.99,Meteorologica,2013-03-10 14:44:00,
2013-03-10 09:49:00,32.2,30.4,29.83,North,7,12.1,18.3,93,0.00,,,-99.99,Meteorologica,2013-03-10 14:49:00,
2013-03-10 09:54:00,31.4,29.5,29.83,NNE,15,10.6,18.6,92,0.00,,,-99.99,Meteorologica,2013-03-10 14:54:00,
2013-03-10 09:59:00,31.2,29.2,29.83,ESE,122,10.1,17.0,92,0.00,,,-99.99,Meteorologica,2013-03-10 14:59:00,
2013-03-10 10:04:00,30.7,28.6,29.84,SW,233,12.8,18.2,91,0.00,,,-99.99,Meteorologica,2013-03-10 15:04:00,
2013-03-10 10:09:00,31.0,29.0,29.84,SW,236,9.1,17.7,92,0.00,,,-99.99,Meteorologica,2013-03-10 15:09:00,
2013-03-10 10:14:00,31.0,29.2,29.83,NNE,32,7.0,13.0,93,0.00,,,-99.99,Meteorologica,2013-03-10 15:14:00,
2013-03-10 10:19:00,30.3,28.4,29.83,WSW,245,9.8,13.3,93,0.00,,,-99.99,Meteorologica,2013-03-10 15:19:00,
2013-03-10 10:24:00,30.1,28.3,29.84,SW,225,10.8,19.4,92,0.00,,,-99.99,Meteorologica,2013-03-10 15:24:00,
2013-03-10 10:29:00,30.0,28.1,29.84,NNW,346,10.4,21.1,92,0.00,,,-99.99,Meteorologica,2013-03-10 15:29:00,
2013-03-10 10:34:00,30.0,28.2,29.85,North,352,6.0,13.2,93,0.00,,,-99.99,Meteorologica,2013-03-10 15:34:00,
2013-03-10 10:39:00,30.1,28.4,29.84,SW,233,7.9,14.4,93,0.00,,,-99.99,Meteorologica,2013-03-10 15:39:00,
2013-03-10 10:44:00,29.8,28.0,29.84,SE,131,10.2,14.6,92,0.00,,,-99.99,Meteorologica,2013-03-10 15:44:00,
2013-03-10 10:49:00,29.7,27.9,29.84,North,359,10.1,14.4,93,0.00,,,-99.99,Meteorologica,2013-03-10 15:49:00,
2013-03-10 10:54:00,29.6,27.8,29.84,NNW,336,9.9,15.5,93,0.00,,,-99.99,Meteorologica,2013-03-10 15:54:00,
2013-03-10 10:59:00,29.3,27.4,29.85,NNW,343,11.2,21.3,92,0.00,,,-99.99,Meteorologica,2013-03-10 15:59:00,
2013-03-10 11:04:00,29.3,27.4,29.85,NNW,348,13.0,22.1,92,0.00,,,-99.99,Meteorologica,2013-03-10 16:04:00,
2013-03-10 11:09:00,29.5,27.8,29.85,NW,324,6.6,14.6,93,0.00,,,-99.99,Meteorologica,2013-03-10 16:09:00,
2013-03-10 11:14:00,29.5,27.8,29.85,NNE,31,8.3,14.1,93,0.00,,,-99.99,Meteorologica,2013-03-10 16:14:00,
2013-03-10 11:19:00,29.5,27.9,29.85,NNW,344,7.7,10.3,93,0.00,,,-99.99,Meteorologica,2013-03-10 16:19:00,
2013-03-10 11:24:00,29.4,27.8,29.85,SW,228,6.9,12.0,94,0.00,,,-99.99,Meteorologica,2013-03-10 16:24:00,
2013-03-10 11:29:00,29.2,27.7,29.85,SW,234,7.7,11.9,94,0.00,,,-99.99,Meteorologica,2013-03-10 16:29:00,
2013-03-10 11:34:00,29.1,27.6,29.85,SE,135,7.9,12.7,94,0.00,,,-99.99,Meteorologica,2013-03-10 16:34:00,
2013-03-10 11:39:00,29.1,27.6,29.85,NNE,32,7.3,10.2,94,0.00,,,-99.99,Meteorologica,2013-03-10 16:39:00,
2013-03-10 11:44:00,29.2,27.7,29.86,NW,314,7.2,9.5,94,0.00,,,-99.99,Meteorologica,2013-03-10 16:44:00,
2013-03-10 11:49:00,28.9,27.5,29.86,NNW,329,6.1,10.3,94,0.00,,,-99.99,Meteorologica,2013-03-10 16:49:00,
2013-03-10 11:54:00,28.4,26.8,29.87,North,6,9.2,15.4,94,0.00,,,-99.99,Meteorologica,2013-03-10 16:54:00,
2013-03-10 11:59:00,28.3,26.9,29.88,North,349,7.7,10.0,94,0.00,,,-99.99,Meteorologica,2013-03-10 16:59:00,
2013-03-10 12:04:00,28.4,27.0,29.88,WNW,292,4.8,9.3,94,0.00,,,-99.99,Meteorologica,2013-03-10 17:04:00,
2013-03-10 12:09:00,28.1,26.6,29.88,SW,233,7.7,15.4,94,0.00,,,-99.99,Meteorologica,2013-03-10 17:09:00,
2013-03-10 12:14:00,27.8,26.3,29.88,SE,126,10.2,16.9,94,0.00,,,-99.99,Meteorologica,2013-03-10 17:14:00,
2013-03-10 12:19:00,27.9,26.5,29.88,North,10,10.5,15.1,94,0.00,,,-99.99,Meteorologica,2013-03-10 17:19:00,
2013-03-10 12:24:00,27.7,26.3,29.88,NNW,342,10.1,14.3,94,0.00,,,-99.99,Meteorologica,2013-03-10 17:24:00,
2013-03-10 12:29:00,27.9,26.6,29.88,NW,326,8.7,14.3,94,0.00,,,-99.99,Meteorologica,2013-03-10 17:29:00,
2013-03-10 12:34:00,27.6,26.2,29.88,WSW,239,8.6,15.7,94,0.00,,,-99.99,Meteorologica,2013-03-10 17:34:00,
2013-03-10 12:39:00,27.5,26.1,29.88,NNW,329,7.7,13.2,94,0.00,,,-99.99,Meteorologica,2013-03-10 17:39:00,
2013-03-10 12:44:00,27.6,26.2,29.88,North,352,7.5,11.6,94,0.00,,,-99.99,Meteorologica,2013-03-10 17:44:00,
2013-03-10 12:49:00,27.5,26.1,29.89,SE,124,8.0,17.4,94,0.00,,,-99.99,Meteorologica,2013-03-10 17:49:00,
2013-03-10 12:54:00,27.5,26.1,29.89,NNE,13,7.2,14.4,94,0.00,,,-99.99,Meteorologica,2013-03-10 17:54:00,
2013-03-10 12:59:00,27.5,26.0,29.88,North,351,6.3,11.8,94,0.00,,,-99.99,Meteorologica,2013-03-10 17:59:00,
2013-03-10 13:04:00,27.4,25.7,29.88,North,351,9.2,14.0,93,0.00,,,-99.99,Meteorologica,2013-03-10 18:04:00,
2013-03-10 13:09:00,27.4,25.8,29.88,NNW,332,6.5,10.7,93,0.00,,,-99.99,Meteorologica,2013-03-10 18:09:00,
2013-03-10 13:14:00,27.5,25.7,29.88,WSW,238,8.0,11.7,93,0.00,,,-99.99,Meteorologica,2013-03-10 18:14:00,
2013-03-10 13:19:00,27.4,25.4,29.88,SW,231,12.5,19.1,92,0.00,,,-99.99,Meteorologica,2013-03-10 18:19:00,
2013-03-10 13:24:00,27.6,25.7,29.88,North,6,9.2,18.8,92,0.00,,,-99.99,Meteorologica,2013-03-10 18:24:00,
2013-03-10 13:29:00,27.3,25.2,29.88,NW,318,10.1,17.0,92,0.00,,,-99.99,Meteorologica,2013-03-10 18:29:00,
2013-03-10 13:34:00,27.7,25.6,29.89,NNW,329,9.6,14.9,91,0.00,,,-99.99,Meteorologica,2013-03-10 18:34:00,
2013-03-10 13:39:00,27.5,25.5,29.88,SE,125,9.8,21.5,92,0.00,,,-99.99,Meteorologica,2013-03-10 18:39:00,
2013-03-10 13:44:00,27.6,25.5,29.88,NNE,14,9.9,15.4,92,0.00,,,-99.99,Meteorologica,2013-03-10 18:44:00,
2013-03-10 13:49:00,27.8,25.7,29.88,NW,319,8.6,15.3,92,0.00,,,-99.99,Meteorologica,2013-03-10 18:49:00,
2013-03-10 13:54:00,27.7,25.5,29.88,North,9,10.0,16.2,91,0.00,,,-99.99,Meteorologica,2013-03-10 18:54:00,
2013-03-10 13:59:00,27.6,25.4,29.88,WSW,243,10.5,18.4,91,0.00,,,-99.99,Meteorologica,2013-03-10 18:59:00,
2013-03-10 14:04:00,27.7,25.5,29.88,NNW,327,10.5,17.2,91,0.00,,,-99.99,Meteorologica,2013-03-10 19:04:00,
2013-03-10 14:09:00,27.8,25.5,29.88,SE,125,10.1,19.0,91,0.00,,,-99.99,Meteorologica,2013-03-10 19:09:00,
2013-03-10 14:14:00,28.1,25.8,29.88,North,353,9.5,15.4,91,0.00,,,-99.99,Meteorologica,2013-03-10 19:14:00,
2013-03-10 14:19:00,28.1,25.8,29.88,SW,217,8.1,16.1,91,0.00,,,-99.99,Meteorologica,2013-03-10 19:19:00,
2013-03-10 14:24:00,28.1,25.8,29.88,NW,305,10.5,15.3,91,0.00,,,-99.99,Meteorologica,2013-03-10 19:24:00,
2013-03-10 14:29:00,28.4,26.1,29.87,North,7,9.7,15.6,91,0.00,,,-99.99,Meteorologica,2013-03-10 19:29:00,
2013-03-10 14:34:00,28.2,25.8,29.88,SW,230,9.4,21.1,90,0.00,,,-99.99,Meteorologica,2013-03-10 19:34:00,
2013-03-10 14:39:00,28.4,26.1,29.88,NW,311,9.2,15.9,91,0.00,,,-99.99,Meteorologica,2013-03-10 19:39:00,
2013-03-10 14:44:00,28.2,25.7,29.87,SE,141,11.6,17.9,90,0.00,,,-99.99,Meteorologica,2013-03-10 19:44:00,
2013-03-10 14:49:00,28.2,25.9,29.87,NNW,328,7.8,14.7,90,0.00,,,-99.99,Meteorologica,2013-03-10 19:49:00,
2013-03-10 14:55:00,28.2,25.7,29.88,NNW,332,11.9,18.5,90,0.00,,,-99.99,Meteorologica,2013-03-10 19:55:00,
2013-03-10 15:00:00,28.0,25.4,29.87,NNW,334,8.6,18.6,89,0.00,,,-99.99,Meteorologica,2013-03-10 20:00:00,
2013-03-10 15:05:00,28.3,25.8,29.87,NNW,337,10.0,16.4,90,0.00,,,-99.99,Meteorologica,2013-03-10 20:05:00,
2013-03-10 15:10:00,28.3,25.8,29.88,SE,127,8.4,17.7,90,0.00,,,-99.99,Meteorologica,2013-03-10 20:10:00,
2013-03-10 15:15:00,28.3,25.8,29.88,ESE,121,9.4,20.8,90,0.00,,,-99.99,Meteorologica,2013-03-10 20:15:00,
2013-03-10 15:20:00,28.1,25.6,29.89,ESE,102,9.2,16.2,90,0.00,,,-99.99,Meteorologica,2013-03-10 20:20:00,
2013-03-10 15:25:00,27.7,25.2,29.90,NW,324,9.9,19.0,90,0.00,,,-99.99,Meteorologica,2013-03-10 20:25:00,
2013-03-10 15:30:00,27.5,24.8,29.89,SW,231,11.3,19.8,89,0.00,,,-99.99,Meteorologica,2013-03-10 20:30:00,
2013-03-10 15:35:00,27.8,25.3,29.90,NNW,340,9.7,14.6,90,0.00,,,-99.99,Meteorologica,2013-03-10 20:35:00,
2013-03-10 15:40:00,27.6,25.0,29.91,NNW,339,8.6,15.0,90,0.00,,,-99.99,Meteorologica,2013-03-10 20:40:00,
2013-03-10 15:45:00,27.0,24.4,29.91,SW,223,11.2,19.8,90,0.00,,,-99.99,Meteorologica,2013-03-10 20:45:00,
2013-03-10 15:50:00,26.9,24.3,29.91,NNW,331,8.8,19.1,90,0.00,,,-99.99,Meteorologica,2013-03-10 20:50:00,
2013-03-10 15:55:00,26.7,24.2,29.91,NNW,332,8.0,24.5,90,0.00,,,-99.99,Meteorologica,2013-03-10 20:55:00,
2013-03-10 16:00:00,26.3,23.8,29.91,SE,130,10.9,17.0,90,0.00,,,-99.99,Meteorologica,2013-03-10 21:00:00,
2013-03-10 16:05:00,26.5,24.1,29.92,NW,307,8.2,17.5,90,0.00,,,-99.99,Meteorologica,2013-03-10 21:05:00,
2013-03-10 16:10:00,26.3,23.8,29.92,SW,235,11.6,19.5,90,0.00,,,-99.99,Meteorologica,2013-03-10 21:10:00,
2013-03-10 16:15:00,26.3,23.9,29.93,SE,130,10.3,20.0,90,0.00,,,-99.99,Meteorologica,2013-03-10 21:15:00,
2013-03-10 16:20:00,26.3,23.8,29.93,NNW,347,8.8,19.7,90,0.00,,,-99.99,Meteorologica,2013-03-10 21:20:00,
2013-03-10 16:25:00,26.5,24.1,29.92,NW,322,8.2,14.4,90,0.00,,,-99.99,Meteorologica,2013-03-10 21:25:00,
2013-03-10 16:30:00,26.5,24.2,29.93,NNW,328,8.1,17.4,91,0.00,,,-99.99,Meteorologica,2013-03-10 21:30:00,
2013-03-10 16:35:00,26.4,23.7,29.93,North,354,9.2,16.1,89,0.00,,,-99.99,Meteorologica,2013-03-10 21:35:00,
2013-03-10 16:40:00,26.6,24.1,29.93,NNW,332,8.0,18.3,90,0.00,,,-99.99,Meteorologica,2013-03-10 21:40:00,
2013-03-10 16:45:00,26.5,24.3,29.93,ESE,119,5.8,10.9,91,0.00,,,-99.99,Meteorologica,2013-03-10 21:45:00,
2013-03-10 16:50:00,26.1,23.7,29.93,SW,234,10.0,19.1,90,0.00,,,-99.99,Meteorologica,2013-03-10 21:50:00,
2013-03-10 16:55:00,26.3,23.9,29.93,NNW,335,6.6,14.7,90,0.00,,,-99.99,Meteorologica,2013-03-10 21:55:00,
2013-03-10 17:00:00,26.0,23.7,29.93,SW,224,9.2,17.6,91,0.00,,,-99.99,Meteorologica,2013-03-10 22:00:00,
2013-03-10 17:05:00,26.1,23.9,29.93,SE,124,7.0,12.9,91,0.00,,,-99.99,Meteorologica,2013-03-10 22:05:00,
2013-03-10 17:10:00,25.9,23.6,29.93,SW,226,10.1,18.4,91,0.00,,,-99.99,Meteorologica,2013-03-10 22:10:00,
2013-03-10 17:15:00,26.1,24.0,29.93,North,349,9.8,18.3,91,0.00,,,-99.99,Meteorologica,2013-03-10 22:15:00,
2013-03-10 17:20:00,26.1,24.2,29.93,NW,324,5.8,10.8,92,0.00,,,-99.99,Meteorologica,2013-03-10 22:20:00,
2013-03-10 17:25:00,26.2,24.5,29.93,WSW,244,5.4,8.4,93,0.00,,,-99.99,Meteorologica,2013-03-10 22:25:00,
2013-03-10 17:30:00,25.9,23.9,29.94,North,356,9.2,16.7,92,0.00,,,-99.99,Meteorologica,2013-03-10 22:30:00,
2013-03-10 17:35:00,25.4,23.5,29.94,NNW,335,9.2,14.8,92,0.00,,,-99.99,Meteorologica,2013-03-10 22:35:00,
2013-03-10 17:40:00,25.4,23.5,29.94,SE,124,7.2,12.9,92,0.00,,,-99.99,Meteorologica,2013-03-10 22:40:00,
2013-03-10 17:45:00,25.5,23.7,29.94,North,351,7.7,13.1,92,0.00,,,-99.99,Meteorologica,2013-03-10 22:45:00,
2013-03-10 17:50:00,25.3,23.4,29.94,NNW,339,7.8,14.7,92,0.00,,,-99.99,Meteorologica,2013-03-10 22:50:00,
2013-03-10 17:55:00,25.3,23.5,29.94,WSW,243,6.1,13.5,92,0.00,,,-99.99,Meteorologica,2013-03-10 22:55:00,
2013-03-10 18:00:00,25.1,23.3,29.94,SW,236,7.9,14.8,92,0.00,,,-99.99,Meteorologica,2013-03-10 23:00:00,
2013-03-10 18:05:00,25.1,23.2,29.95,SW,227,9.8,14.3,92,0.00,,,-99.99,Meteorologica,2013-03-10 23:05:00,
2013-03-10 18:10:00,25.0,23.2,29.94,ESE,122,7.6,13.6,92,0.00,,,-99.99,Meteorologica,2013-03-10 23:10:00,
2013-03-10 18:15:00,25.8,24.0,29.93,SE,127,7.7,14.7,93,0.00,,,-99.99,Meteorologica,2013-03-10 23:15:00,
2013-03-10 18:20:00,25.2,23.5,29.95,SE,129,6.7,9.5,93,0.00,,,-99.99,Meteorologica,2013-03-10 23:20:00,
2013-03-10 18:25:00,25.1,23.3,29.95,SW,234,7.8,12.3,93,0.00,,,-99.99,Meteorologica,2013-03-10 23:25:00,
2013-03-10 18:30:00,25.0,23.2,29.95,NW,318,9.3,14.2,92,0.00,,,-99.99,Meteorologica,2013-03-10 23:30:00,
2013-03-10 18:35:00,25.0,23.1,29.95,West,276,6.9,17.4,92,0.00,,,-99.99,Meteorologica,2013-03-10 23:35:00,
2013-03-10 18:40:00,25.1,23.2,29.95,North,5,6.6,16.1,92,0.00,,,-99.99,Meteorologica,2013-03-10 23:40:00,
2013-03-10 18:45:00,24.9,23.1,29.96,NW,321,7.2,13.8,92,0.00,,,-99.99,Meteorologica,2013-03-10 23:45:00,
2013-03-10 18:50:00,24.7,22.7,29.95,WSW,246,6.1,15.9,92,0.00,,,-99.99,Meteorologica,2013-03-10 23:50:00,
2013-03-10 18:55:00,24.5,22.7,29.96,NNW,343,7.8,15.8,92,0.00,,,-99.99,Meteorologica,2013-03-10 23:55:00,
2013-03-10 19:00:00,24.5,22.6,29.96,NNW,334,7.8,15.2,92,0.00,,,-99.99,Meteorologica,2013-03-11 00:00:00,
2013-03-10 19:05:00,24.6,22.6,29.95,NW,318,9.0,16.3,92,0.00,,,-99.99,Meteorologica,2013-03-11 00:05:00,
2013-03-10 19:10:00,24.8,22.8,29.96,NNW,339,8.3,11.4,92,0.00,,,-99.99,Meteorologica,2013-03-11 00:10:00,
2013-03-10 19:15:00,24.6,22.7,29.96,ESE,122,9.5,18.0,92,0.00,,,-99.99,Meteorologica,2013-03-11 00:15:00,
2013-03-10 19:20:00,24.2,22.4,29.97,NNW,328,9.4,15.6,92,0.00,,,-99.99,Meteorologica,2013-03-11 00:20:00,
2013-03-10 19:25:00,24.1,22.3,29.96,NNW,327,8.0,11.9,93,0.00,,,-99.99,Meteorologica,2013-03-11 00:25:00,
2013-03-10 19:30:00,24.0,22.3,29.96,SW,232,8.6,11.3,93,0.00,,,-99.99,Meteorologica,2013-03-11 00:30:00,
2013-03-10 19:35:00,24.1,22.3,29.96,NW,324,7.8,17.4,93,0.00,,,-99.99,Meteorologica,2013-03-11 00:35:00,
2013-03-10 19:40:00,23.9,22.1,29.97,ESE,116,8.2,14.5,93,0.00,,,-99.99,Meteorologica,2013-03-11 00:40:00,
2013-03-10 19:45:00,24.0,22.2,29.97,SW,226,9.3,15.6,92,0.00,,,-99.99,Meteorologica,2013-03-11 00:45:00,
2013-03-10 19:50:00,24.0,22.2,29.97,SE,133,7.8,12.8,92,0.00,,,-99.99,Meteorologica,2013-03-11 00:50:00,
2013-03-10 19:55:00,24.1,24.1,29.97,North,357,8.0,14.1,100,0.00,,,-99.99,Meteorologica,2013-03-11 00:55:00,
2013-03-10 20:00:00,24.2,22.2,29.97,NNW,333,7.9,14.1,92,0.00,,,-99.99,Meteorologica,2013-03-11 01:00:00,
2013-03-10 20:05:00,24.1,22.0,29.98,SW,231,8.2,13.2,91,0.00,,,-99.99,Meteorologica,2013-03-11 01:05:00,
2013-03-10 20:10:00,24.1,22.0,29.98,NW,323,8.3,14.4,91,0.00,,,-99.99,Meteorologica,2013-03-11 01:10:00,
2013-03-10 20:15:00,24.1,21.9,29.98,North,5,7.7,13.4,91,0.00,,,-99.99,Meteorologica,2013-03-11 01:15:00,
2013-03-10 20:20:00,24.1,22.1,29.98,NNW,340,6.4,12.2,92,0.00,,,-99.99,Meteorologica,2013-03-11 01:20:00,
2013-03-10 20:25:00,24.0,22.0,29.98,ESE,111,6.6,16.7,92,0.00,,,-99.99,Meteorologica,2013-03-11 01:25:00,
2013-03-10 20:30:00,23.9,23.9,29.98,NNW,344,9.0,15.6,100,0.00,,,-99.99,Meteorologica,2013-03-11 01:30:00,
2013-03-10 20:35:00,24.0,21.8,29.98,North,7,8.0,12.0,91,0.00,,,-99.99,Meteorologica,2013-03-11 01:35:00,
2013-03-10 20:40:00,24.1,21.9,29.99,NW,325,6.3,10.5,91,0.00,,,-99.99,Meteorologica,2013-03-11 01:40:00,
2013-03-10 20:45:00,24.0,21.7,29.99,North,7,8.1,12.1,100,0.00,,,-99.99,Meteorologica,2013-03-11 01:45:00,
2013-03-10 20:51:00,24.0,21.7,29.99,North,9,9.2,16.1,91,0.00,,,-99.99,Meteorologica,2013-03-11 01:51:00,
2013-03-10 20:56:00,24.2,22.0,29.99,NNE,26,6.2,11.2,91,0.00,,,-99.99,Meteorologica,2013-03-11 01:56:00,
2013-03-10 21:01:00,24.1,21.9,29.99,NNW,344,8.5,12.3,91,0.00,,,-99.99,Meteorologica,2013-03-11 02:01:00,
2013-03-10 21:06:00,24.2,22.1,29.99,NNE,16,8.0,14.1,91,0.00,,,-99.99,Meteorologica,2013-03-11 02:06:00,
2013-03-10 21:11:00,24.1,22.0,29.99,WSW,238,7.2,13.0,91,0.00,,,-99.99,Meteorologica,2013-03-11 02:11:00,
2013-03-10 21:16:00,24.2,22.0,30.00,North,349,7.8,13.6,91,0.00,,,-99.99,Meteorologica,2013-03-11 02:16:00,
2013-03-10 21:21:00,24.1,21.9,30.00,NNW,340,6.7,17.1,91,0.00,,,-99.99,Meteorologica,2013-03-11 02:21:00,
2013-03-10 21:26:00,24.1,21.9,30.00,NNW,341,6.7,11.2,91,0.00,,,-99.99,Meteorologica,2013-03-11 02:26:00,
2013-03-10 21:31:00,24.1,21.9,30.00,North,353,6.1,13.2,91,0.00,,,-99.99,Meteorologica,2013-03-11 02:31:00,
2013-03-10 21:36:00,24.1,21.9,30.00,NNW,330,5.5,13.6,91,0.00,,,-99.99,Meteorologica,2013-03-11 02:36:00,
2013-03-10 21:41:00,24.1,21.8,30.00,SSW,207,6.8,12.5,91,0.00,,,-99.99,Meteorologica,2013-03-11 02:41:00,
2013-03-10 21:46:00,24.1,21.8,30.00,NNW,341,6.6,12.4,90,0.00,,,-99.99,Meteorologica,2013-03-11 02:46:00,
2013-03-10 21:51:00,24.1,21.8,30.00,SW,227,9.2,13.4,90,0.00,,,-99.99,Meteorologica,2013-03-11 02:51:00,
2013-03-10 21:56:00,24.1,21.8,30.00,NNW,342,7.1,11.8,90,0.00,,,-99.99,Meteorologica,2013-03-11 02:56:00,
2013-03-10 22:01:00,24.0,21.6,30.00,North,356,7.9,14.0,90,0.00,,,-99.99,Meteorologica,2013-03-11 03:01:00,
2013-03-10 22:06:00,24.1,21.7,30.01,NNW,333,8.3,17.2,90,0.00,,,-99.99,Meteorologica,2013-03-11 03:06:00,
2013-03-10 22:11:00,24.2,21.7,30.01,SW,235,10.0,16.1,90,0.00,,,-99.99,Meteorologica,2013-03-11 03:11:00,
2013-03-10 22:16:00,24.3,22.0,30.01,NNW,331,7.6,11.2,90,0.00,,,-99.99,Meteorologica,2013-03-11 03:16:00,
2013-03-10 22:21:00,24.2,22.2,30.01,SW,236,7.1,12.0,92,0.00,,,-99.99,Meteorologica,2013-03-11 03:21:00,
2013-03-10 22:26:00,24.0,22.2,30.01,ESE,121,6.9,11.4,93,0.00,,,-99.99,Meteorologica,2013-03-11 03:26:00,
2013-03-10 22:31:00,23.8,22.1,30.01,NNW,339,6.2,11.1,93,0.00,,,-99.99,Meteorologica,2013-03-11 03:31:00,
2013-03-10 22:36:00,23.9,22.3,30.01,SW,233,5.1,9.5,93,0.00,,,-99.99,Meteorologica,2013-03-11 03:36:00,
2013-03-10 22:41:00,23.7,22.0,30.01,North,356,7.9,12.3,93,0.00,,,-99.99,Meteorologica,2013-03-11 03:41:00,
2013-03-10 22:46:00,23.6,22.0,30.01,NNW,343,6.1,11.4,93,0.00,,,-99.99,Meteorologica,2013-03-11 03:46:00,
2013-03-10 22:51:00,23.5,21.9,30.01,SW,223,4.6,9.2,93,0.00,,,-99.99,Meteorologica,2013-03-11 03:51:00,
2013-03-10 22:56:00,23.7,22.0,30.01,SE,139,5.6,14.7,93,0.00,,,-99.99,Meteorologica,2013-03-11 03:56:00,
2013-03-10 23:01:00,23.6,21.8,30.01,NNW,327,6.5,9.7,92,0.00,,,-99.99,Meteorologica,2013-03-11 04:01:00,
2013-03-10 23:03:00,23.5,21.7,30.01,NNW,337,6.5,8.9,92,0.00,,,-99.99,Meteorologica,2013-03-11 04:03:00,
2013-03-10 23:05:00,23.6,21.8,30.01,WSW,246,6.1,9.7,92,0.00,,,-99.99,Meteorologica,2013-03-11 04:05:00,
2013-03-10 23:10:00,23.7,21.9,30.01,NNW,332,4.9,10.7,92,0.00,,,-99.99,Meteorologica,2013-03-11 04:10:00,
2013-03-10 23:12:00,23.7,21.9,30.01,WSW,246,6.2,8.7,93,0.00,,,-99.99,Meteorologica,2013-03-11 04:12:00,
2013-03-10 23:17:00,23.5,21.6,30.00,North,10,7.3,10.5,92,0.00,,,-99.99,Meteorologica,2013-03-11 04:17:00,
2013-03-10 23:22:00,23.4,21.3,30.00,SW,231,7.6,10.7,91,0.00,,,-99.99,Meteorologica,2013-03-11 04:22:00,
2013-03-10 23:27:00,23.3,21.3,30.00,North,353,6.2,8.2,92,0.00,,,-99.99,Meteorologica,2013-03-11 04:27:00,
2013-03-10 23:32:00,23.3,21.3,30.00,SE,125,7.3,9.7,92,0.00,,,-99.99,Meteorologica,2013-03-11 04:32:00,
2013-03-10 23:38:00,23.2,21.1,30.00,SE,140,7.6,12.1,91,0.00,,,-99.99,Meteorologica,2013-03-11 04:38:00,
2013-03-10 23:43:00,23.2,21.2,30.00,NNW,332,5.3,8.6,92,0.00,,,-99.99,Meteorologica,2013-03-11 04:43:00,
2013-03-10 23:48:00,23.2,21.2,30.00,WSW,237,5.8,7.8,92,0.00,,,-99.99,Meteorologica,2013-03-11 04:48:00,
2013-03-10 23:53:00,23.2,21.2,30.00,NNE,19,5.9,7.4,92,0.00,,,-99.99,Meteorologica,2013-03-11 04:53:00,
2013-03-10 23:58:00,23.3,21.3,30.00,NNW,346,7.2,9.7,92,0.00,,,-99.99,Meteorologica,2013-03-11 04:58:00,